This is the latest recevied weather packets stored in our database for station/object SP6RGZ-1. If no packets are shown the sender has not sent any weather packets the latest 10 day(s).
| Time | Temp. | Humidity | Pressure | Rain* | Wind** | Luminosity | Snow |
|---|---|---|---|---|---|---|---|
| 1787762702 | 22.22° C | 53% | 1001.7 hPa | - | - | - | - |
| 1787761802 | 22.78° C | 52% | 1001.7 hPa | - | - | - | - |
| 1787760902 | 23.33° C | 51% | 1001.7 hPa | - | - | - | - |
| 1787760002 | 23.33° C | 50% | 1001.6 hPa | - | - | - | - |
| 1787759103 | 23.89° C | 49% | 1001.7 hPa | - | - | - | - |
| 1787758202 | 23.89° C | 47% | 1001.6 hPa | - | - | - | - |
| 1787757302 | 24.44° C | 45% | 1001.6 hPa | - | - | - | - |
| 1787756402 | 25° C | 43% | 1001.5 hPa | - | - | - | - |
| 1787755502 | 25.56° C | 41% | 1001.6 hPa | - | - | - | - |
| 1787754602 | 26.11° C | 41% | 1001.6 hPa | - | - | - | - |
| 1787753702 | 25.56° C | 40% | 1001.5 hPa | - | - | - | - |
| 1787752802 | 26.11° C | 40% | 1001.7 hPa | - | - | - | - |
| 1787751902 | 26.11° C | 40% | 1001.7 hPa | - | - | - | - |
| 1787751002 | 26.11° C | 41% | 1001.8 hPa | - | - | - | - |
| 1787750103 | 25.56° C | 41% | 1001.6 hPa | - | - | - | - |
| 1787749202 | 25° C | 43% | 1001.7 hPa | - | - | - | - |
| 1787748302 | 25° C | 43% | 1001.8 hPa | - | - | - | - |
| 1787747402 | 26.11° C | 45% | 1001.8 hPa | - | - | - | - |
| 1787746502 | 25.56° C | 45% | 1001.9 hPa | - | - | - | - |
| 1787745602 | 26.11° C | 43% | 1001.9 hPa | - | - | - | - |
| 1787744702 | 26.11° C | 42% | 1002 hPa | - | - | - | - |
| 1787743802 | 25.56° C | 44% | 1001.9 hPa | - | - | - | - |
| 1787742902 | 25° C | 43% | 1002.2 hPa | - | - | - | - |
| 1787742002 | 25° C | 44% | 1002.2 hPa | - | - | - | - |
| 1787741102 | 25° C | 45% | 1002.2 hPa | - | - | - | - |
* Rain since midnight (hover to see other rain measurements)
** Current wind speed in m/s (hover to see current wind gust speed)